Location: Newark
(35.6799°N, 139.7636°E)
Time: 05:02:20
(UTC+00:00)

Courier 1B Rocket - Pass Details

Date: 17 December 2019
Orbit: 920 x 1202 km, 28.2° (Epoch: 20 January)

Event Time Altitude Azimuth Distance (km) Brightness Sun altitude
Exits shadow 20:53:08 - 260° (W) 3,293 7.2 -10.3°
Reaches altitude 10° 20:54:06 10° 257° (WSW) 2,977 7.0 -10.1°
Maximum altitude 21:00:55 43° 189° (S) 1,437 6.0 -8.9°
Drops below altitude 10° 21:07:16 10° 119° (ESE) 2,776 9.1 -7.7°
Sets 21:09:59 0° 113° (ESE) 3,685 10.8 -7.2°
